Weather in Solntsevo

Russia / Lipetsk Oblast     53°20′01″N   40°07′49″E
temp.,
°C
wind,
m/s
gust,
m/s
humid.,
%
clouds,
%
prec.,
mm/h
press.,
hPa
HPBL,
m
26 february, fri
fri2600:00+1w3899100 0.0 1015188
03:00+1w3799100 0.0 1015179
06:00+2wsw48100100 0.6 1014202
09:00+2w511100100 1.4 1012266
12:00+2wsw615100100 0.0 1010422
15:00+2w71599100 0.1 1009482
18:00+2wsw717100100 0.1 1007459
21:00+2w61492100 0.2 1007529
27 february, sat
sat2700:00+1w71491100 0.0 1006522
03:00+1w7138897 0.0 1006456
06:00−1w5139064 0.0 1004403
09:000w7139682 0.1 1004665
12:00+1wnw7149798 0.1 1004725
15:000nnw7139197 0.1 1006857
18:00−6nnw5128972 0.0 1007530
21:00−9nnw5119248 0.0 1010454
28 february, sun
sun2800:00−11nnw4109363 0.0 1012428
03:00−12nnw499336 0.0 1014341
06:00−13nnw49940 0.0 1015298
09:00−12nnw46939 0.0 1017317
12:00−10nnw359087 0.0 1017421
15:00−9nnw469093 0.0 1018502
18:00−10nnw359596 0.0 101894
21:00−11nnw339570 0.0 102166
1 march, mon
mon100:00−11n229587 0.0 102221
03:00−12nnw239679 0.1 102338
06:00−12nnw239668 0.0 102432
09:00−11nne229576 0.1 1026104
12:00−9nne128866 0.0 1027240
15:00−8nw128871 0.0 1028286
18:00−10w229326 0.0 102821
21:00−9sw339413 0.0 102936
2 march, tue
tue200:00−7wsw379586 0.0 1028153
03:00−5wsw5109293 0.0 1025249
06:00−3wsw71394100 0.1 1022421
09:00−1w71393100 0.1 1019624
12:00+1w61395100 0.0 1017739
15:00+1wnw71397100 0.1 1015700
18:000nw6139397 0.2 1015604
21:00−2nw6149093 0.2 1017486